User: anonymous   Login
Location: Newark
(57.4833°N, 18.5000°E)
Time: 19:32:48
(UTC+00:00)
Language:

LightSail 2 - Orbit

View from above orbital plane
View from above orbital plane
View from above satellite
View from above satellite

Ground track
Ground track

The orbit data is extracted from the following two-line orbital elements,

1 44420U 19036AC  20100.89225545  .00006872  00000-0  15110-2 0  9999
2 44420  24.0094 180.8459 0020066  86.0003 274.2782 14.55056489 40318
Epoch (UTC): 09 April 2020 21:24:50
Eccentricity: 0.0020066
inclination: 24.0094°
perigee height: 695 km
apogee height: 723 km
right ascension of ascending node: 180.8459°
argument of perigee: 86.0003°
revolutions per day: 14.55056489
mean anomaly at epoch: 274.2782°
orbit number at epoch: 4031

The dashed part of the orbit path shows where the satellite is in the earth's shadow,  

DLR